DW5567 Weather Reports


Display with metric or nautical units.
time (UTC)temp
F
wind
direction
speed
MPH
gust
MPH
rain 1hr
in
rain 24hr
in
rain mn
in
humidity
%
barometer
mb
20260903121517 81 69 0.0 0.0 0.00 1.11 0.00 92 1015.2
20260903120015 80 70 0.0 0.0 0.00 1.11 0.00 93 1014.8
20260903114515 79 70 0.0 0.0 0.00 1.12 0.00 93 1014.7
20260903113020 0 0.0 0.0 0.00 1.12 0.00 1014.6
20260903111508 0 0.0 0.0 0.00 1.12 0.00 1014.4
20260903110002 0 0.0 0.0 0.00 1.12 0.00 1014.2
20260903104603 0 0.0 0.0 0.00 1.12 0.00 1013.8
20260903103054 0 0.0 0.0 0.00 1.12 0.00 1013.7
20260903101548 0 0.0 0.0 0.00 1.12 0.00 1013.4
20260903100045 0 0.0 0.0 0.00 1.12 0.00 1013.2
20260903094542 0 0.0 0.0 0.00 1.12 0.00 1013.3
20260903093050 0 0.0 0.0 0.00 1.12 0.00 1013.2
20260903091531 0 0.0 0.0 0.00 1.12 0.00 1013.1
20260903090028 0 0.0 0.0 0.00 1.12 0.00 1013.2
20260903084530 0 0.0 0.0 0.00 1.12 0.00 1013.2
20260903083019 0 0.0 0.0 0.00 1.12 0.00 1013.1
20260903081515 0 0.0 0.0 0.00 1.12 0.00 1013.1
20260903080010 0 0.0 0.0 0.00 1.12 0.00 1013.2
20260903074508 0 0.0 0.0 0.00 1.12 0.00 1013.1
20260903073107 0 0.0 0.0 0.00 1.12 0.00 1013.1
20260903071559 79 70 0.0 0.0 0.00 1.12 0.00 91 1013.2
20260903070055 78 70 0.0 0.0 0.00 1.12 0.00 91 1013.3
20260903064552 78 70 0.0 0.0 0.00 1.12 0.00 91 1013.5
20260903063050 78 70 0.0 0.0 0.00 1.12 0.00 92 1013.8
20260903061550 78 70 0.0 0.0 0.00 1.12 0.00 92 1014.0
20260903060046 78 70 0.0 0.0 0.00 1.12 0.00 92 1014.1
20260903054543 78 70 0.0 0.0 0.00 1.12 0.00 92 1014.4
20260903053041 78 70 0.0 1.0 0.00 1.12 0.00 92 1014.8
20260903051540 78 70 0.0 0.0 0.00 1.12 0.00 92 1014.8
20260903050036 79 79 0.0 9.0 0.00 1.12 0.00 91 1015.3
20260903044535 80 103 4.0 10.0 0.00 1.12 0.00 91 1015.2
20260903043029 80 152 0.0 0.0 0.00 1.12 0.00 93 1015.3
20260903041525 80 152 0.0 0.0 0.00 1.12 0.00 93 1015.4
20260903040022 80 152 0.0 0.0 0.00 1.12 0.00 93 1015.1
20260903034521 80 153 0.0 0.0 0.00 1.12 1.12 93 1015.4
20260903033031 80 152 0.0 0.0 0.00 1.12 1.12 93 1015.3
20260903031522 79 152 0.0 0.0 0.00 1.12 1.12 93 1015.4
20260903030027 79 152 0.0 0.0 0.00 1.12 1.12 93 1015.2
20260903024519 79 152 0.0 0.0 0.00 1.12 1.12 93 1014.9
20260903023020 80 152 0.0 0.0 0.00 1.12 1.12 93 1014.9
20260903021529 80 152 0.0 0.0 0.00 1.12 1.12 93 1015.0
20260903020018 80 152 0.0 0.0 0.00 1.12 1.12 93 1014.6
20260903014518 80 152 0.0 0.0 0.00 1.12 1.12 93 1014.8
20260903013017 80 152 0.0 0.0 0.00 1.12 1.12 92 1014.9
20260903011516 80 152 0.0 0.0 0.00 1.12 1.12 92 1014.6
20260903010015 81 152 0.0 0.0 0.00 1.12 1.12 91 1014.5
20260903004520 81 153 0.0 0.0 0.00 1.12 1.12 91 1014.3
20260903003014 81 152 0.0 0.0 0.00 1.12 1.12 90 1014.0
20260903001517 82 152 0.0 0.0 0.00 1.12 1.12 89 1014.2
20260903000013 82 152 0.0 0.0 0.00 1.12 1.12 89 1014.1
20260902234516 83 152 0.0 0.0 0.00 1.12 1.12 87 1014.3
20260902233012 83 153 0.0 0.0 0.00 1.12 1.12 86 1014.1
20260902231517 84 152 0.0 0.0 0.00 1.12 1.12 85 1013.9
20260902230010 84 152 0.0 0.0 0.00 1.12 1.12 85 1013.7
20260902224510 84 153 0.0 0.0 0.00 1.12 1.12 87 1013.7
20260902223010 83 152 0.0 0.0 0.00 1.12 1.12 93 1013.8
20260902221507 81 160 0.0 0.0 0.00 1.12 1.12 94 1013.7
20260902220008 80 152 0.0 0.0 0.00 1.12 1.12 94 1013.7
20260902214506 80 75 0.0 0.0 0.00 1.12 1.12 94 1013.8
20260902213006 79 75 0.0 0.0 0.00 1.12 1.12 93 1013.9
20260902211505 80 74 0.0 0.0 0.00 1.12 1.12 93 1014.0
20260902210004 80 75 0.0 0.0 0.00 1.12 1.12 93 1014.1
20260902204503 81 72 0.0 1.0 0.05 1.12 1.12 93 1014.1
20260902203003 80 72 0.0 0.0 0.21 1.12 1.12 93 1013.8
20260902201600 79 132 0.0 3.0 0.71 1.12 1.12 93 1014.1
20260902200059 79 82 2.0 7.0 1.01 1.12 1.12 93 1014.3
20260902194559 79 79 1.0 7.0 0.96 1.07 1.07 93 1014.6
20260902193104 77 69 4.0 11.0 0.80 0.91 0.91 92 1014.8
20260902191601 80 27 0.0 3.0 0.24 0.35 0.35 85 1014.8
20260902190100 84 17 0.0 1.0 0.00 0.11 0.11 78 1015.0
20260902184617 91 79 0.0 0.0 0.00 0.11 0.11 76 1014.8
20260902183111 91 148 0.0 1.0 0.00 0.11 0.11 75 1014.6
20260902181554 91 137 0.0 1.0 0.00 0.11 0.11 76 1014.7
20260902180052 90 152 0.0 0.0 0.00 0.11 0.11 77 1014.9
20260902174551 89 128 0.0 0.0 0.00 0.11 0.11 79 1015.0
20260902173051 88 150 0.0 0.0 0.00 0.11 0.11 79 1015.4
20260902171551 90 165 0.0 1.0 0.05 0.11 0.11 80 1015.7
20260902170052 88 67 0.0 0.0 0.05 0.11 0.11 85 1015.7
20260902164549 85 162 0.0 1.0 0.05 0.11 0.11 90 1015.8
20260902163056 84 70 0.0 1.0 0.05 0.11 0.11 89 1015.7
20260902161547 86 150 0.0 0.0 0.05 0.06 0.06 86 1016.1
20260902160045 84 63 0.0 0.0 0.05 0.06 0.06 88 1016.1
20260902154548 83 11 0.0 0.0 0.05 0.06 0.06 89 1016.1
20260902153045 83 43 0.0 0.0 0.05 0.06 0.06 86 1016.3
20260902151541 87 319 0.0 0.0 0.00 0.01 0.01 80 1016.3
20260902150039 90 20 0.0 0.0 0.00 0.01 0.01 75 1016.3
20260902144539 90 165 0.0 0.0 0.00 0.01 0.01 74 1016.0
20260902143033 89 148 0.0 0.0 0.00 0.01 0.01 76 1016.0
20260902141537 89 143 0.0 0.0 0.00 0.01 0.01 77 1015.7
20260902140036 89 136 0.0 0.0 0.00 0.01 0.01 79 1015.6
20260902134527 88 13 0.0 0.0 0.00 0.01 0.01 83 1015.7
20260902133023 86 13 0.0 0.0 0.00 0.01 0.01 86 1015.8
20260902131537 85 6 0.0 0.0 0.00 0.01 0.01 88 1015.9
20260902130015 84 46 0.0 0.0 0.00 0.01 0.01 89 1015.8
20260902124512 82 349 0.0 0.0 0.01 0.01 0.01 91 1015.6
20260902123007 80 339 0.0 0.0 0.01 0.01 0.01 93 1015.7